Miramar MCAS, CA

3:56 PM PST on December 16, 2017 (GMT -0800)
Miramar Marine Corps Air Station-Mitscher

Weather History for KNKX - February, 2013

Change the Weather History Date:

Sunday, February 10, 2013

  Actual Average Record
Temperature  
Mean Temperature 48 °F -  
Max Temperature 55 °F 64 °F 90 °F (2016)
Min Temperature 41 °F 44 °F 36 °F (2009)
Degree Days  
Heating Degree Days 17    
Moisture  
Dew Point 37 °F    
Average Humidity 69    
Maximum Humidity 82    
Minimum Humidity 47    
Precipitation  
Precipitation 0.00 in - - ()
Sea Level Pressure  
Sea Level Pressure 30.06 in    
Wind  
Wind Speed 5 mph (East)    
Max Wind Speed 10 mph    
Max Gust Speed -    
Visibility 10 miles    
Events      
Averages and records for this station are not official NWS values.
T = Trace of Precipitation, MM = Missing Value Source: NWS Daily Summary

Daily Weather History Graph

Daily Weather History Graph

Search for Another Location

Airport or City:

Trip Planner

Search our weather history database for the weather conditions in past years. The results will help you decide how hot, cold, wet, or windy it might be!

Date:

Astronomy

Feb. 10, 2013 Rise Set
Actual Time 6:36 AM PST 5:29 PM PST
Civil Twilight 6:10 AM PST 5:55 PM PST
Nautical Twilight 5:41 AM PST 6:24 PM PST
Astronomical Twilight 5:12 AM PST 6:53 PM PST
Moon 6:33 AM PST (2/10) 6:19 PM PST (2/10)
Length of Visible Light 11h 44m
Length of Day
10h 53m
New Moon, 0% of the Moon is Illuminated
Feb 10
New Moon
Feb 17
First Quarter
Feb 25
Full
Mar 4
Last Quarter
Mar 11
New

Hourly Weather History & Observations

Time (PST) Temp. Windchill Dew Point Humidity Pressure Visibility Wind Dir Wind Speed Gust Speed Precip Events Conditions
12:55 AM 44.1 °F 40.8 °F 37.9 °F 79% 30.11 in 10.0 mi East 5.8 mph - N/A   Mostly Cloudy
1:55 AM 45.0 °F 42.6 °F 39.0 °F 80% 30.09 in 10.0 mi East 4.6 mph - N/A   Mostly Cloudy
2:55 AM 43.0 °F 38.8 °F 37.0 °F 80% 30.08 in 10.0 mi East 6.9 mph - N/A   Scattered Clouds
3:55 AM 42.1 °F 38.4 °F 37.0 °F 82% 30.06 in 10.0 mi East 5.8 mph - N/A   Partly Cloudy
4:55 AM 41.0 °F 38.0 °F 36.0 °F 82% 30.06 in 10.0 mi ENE 4.6 mph - N/A   Partly Cloudy
5:55 AM 41.0 °F 36.4 °F 36.0 °F 82% 30.07 in 10.0 mi East 6.9 mph - N/A   Partly Cloudy
6:55 AM 42.1 °F 38.4 °F 37.0 °F 82% 30.07 in 10.0 mi East 5.8 mph - N/A   Scattered Clouds
7:55 AM 48.0 °F - 39.9 °F 74% 30.08 in 10.0 mi Calm Calm - N/A   Mostly Cloudy
8:55 AM 50.0 °F - 41.0 °F 71% 30.09 in 10.0 mi Calm Calm - N/A   Overcast
9:55 AM 51.1 °F - 39.0 °F 63% 30.10 in 10.0 mi SE 4.6 mph - N/A   Overcast
10:55 AM 53.1 °F - 37.9 °F 57% 30.10 in 10.0 mi WSW 4.6 mph - N/A   Overcast
11:55 AM 54.0 °F - 37.0 °F 53% 30.07 in 10.0 mi West 6.9 mph - N/A   Overcast
12:55 PM 55.0 °F - 35.1 °F 47% 30.05 in 10.0 mi West 6.9 mph - N/A   Overcast
1:55 PM 55.9 °F - 36.0 °F 47% 30.04 in 10.0 mi West 10.4 mph - N/A   Mostly Cloudy
2:55 PM 55.0 °F - 36.0 °F 49% 30.03 in 10.0 mi WSW 10.4 mph - N/A   Mostly Cloudy
3:55 PM 54.0 °F - 36.0 °F 51% 30.03 in 10.0 mi West 8.1 mph - N/A   Mostly Cloudy
4:55 PM 53.1 °F - 36.0 °F 52% 30.03 in 10.0 mi West 8.1 mph - N/A   Scattered Clouds
5:55 PM 48.9 °F - 37.9 °F 66% 30.04 in 10.0 mi West 5.8 mph - N/A   Scattered Clouds
6:55 PM 45.0 °F - 36.0 °F 71% 30.04 in 10.0 mi Calm Calm - N/A   Scattered Clouds
7:55 PM 45.0 °F 42.6 °F 37.9 °F 76% 30.05 in 10.0 mi ENE 4.6 mph - N/A   Mostly Cloudy
8:55 PM 46.0 °F 44.8 °F 37.9 °F 73% 30.05 in 10.0 mi East 3.5 mph - N/A   Mostly Cloudy
9:55 PM 44.1 °F 40.8 °F 37.9 °F 79% 30.06 in 10.0 mi ENE 5.8 mph - N/A   Scattered Clouds
10:55 PM 43.0 °F 40.3 °F 37.0 °F 80% 30.06 in 10.0 mi East 4.6 mph - N/A   Scattered Clouds
11:55 PM 42.1 °F 38.4 °F 37.0 °F 82% 30.06 in 10.0 mi ENE 5.8 mph - N/A   Scattered Clouds